Waarnemingen

Advertentie
Mijn weer
Luxeuil, Frankrijk (7292): temperatuur & dauwpunt: 14.02.2019 14:00:00 - 20.02.2019 14:00:00 (CET)Luxeuil, Frankrijk (7292): temperatuur 5cm: 14.02.2019 14:00:00 - 20.02.2019 14:00:00 (CET)Luxeuil, Frankrijk (7292): temperatuur -20cm & temperatuur -100cm: 14.02.2019 14:00:00 - 20.02.2019 14:00:00 (CET)Luxeuil, Frankrijk (7292): windsnelheid & windstoten: 14.02.2019 14:00:00 - 20.02.2019 14:00:00 (CET)Luxeuil, Frankrijk (7292): windrichting: 14.02.2019 14:00:00 - 20.02.2019 14:00:00 (CET)Luxeuil, Frankrijk (7292): luchtdruk: 14.02.2019 14:00:00 - 20.02.2019 14:00:00 (CET)Luxeuil, Frankrijk (7292): zicht: 14.02.2019 14:00:00 - 20.02.2019 14:00:00 (CET)Luxeuil, Frankrijk (7292): Zonneschijnduur: 14.02.2019 14:00:00 - 20.02.2019 14:00:00 (CET)Luxeuil, Frankrijk (7292): neerslag: 14.02.2019 14:00:00 - 20.02.2019 14:00:00 (CET)
Datum & Tijd tt [°C] td [°C] tt 5cm [°C] tt -20cm [°C] tt -100cm [°C] ff [km/u] ff [kn] fx [km/u] fx [kn] dd ppp [hPa] vv [km] sd [min] rr [mm]
20.02.2019 14:00:00 - - - - - - - - - - - - - -
20.02.2019 13:00:00 12,8 5,5 17,5 5,2 6,7 4 2 16 8 W 1025,1 17 60 0,0
20.02.2019 12:00:00 11,7 5,8 13,4 5,1 6,7 4 2 13 7 ZW 1025,5 13 41 0,0
20.02.2019 11:00:00 9,9 5,5 8,3 5,2 6,7 4 2 12 6 NNO 1025,3 12 14 0,0
20.02.2019 10:00:00 5,6 4,2 3,5 5,3 6,7 6 3 10 6 O 1025,5 9 8 0,0
20.02.2019 09:00:00 2,7 2,0 0,8 5,4 6,7 2 1 6 3 OZO 1025,6 4,7 0 0,0
20.02.2019 08:00:00 0,7 0,0 -1,2 5,5 6,7 4 2 5 3 ZZO 1025,4 4,1 0 0,0
20.02.2019 07:00:00 0,5 -0,6 -0,7 5,7 6,7 2 1 4 2 ZW 1024,9 3,7 0 0,0
20.02.2019 06:00:00 1,0 0,6 -1,9 5,7 6,7 0 0 5 3 N 1024,7 2,9 0 0,0
20.02.2019 05:00:00 -1,0 -1,6 -2,3 5,8 6,7 2 1 6 4 ZW 1024,7 0,2 0 0,0
20.02.2019 04:00:00 -0,4 -1,0 -2,1 5,9 6,7 4 2 7 4 ZO 1024,5 3,0 0 0,0
20.02.2019 03:00:00 0,1 -0,5 -1,4 6,1 6,7 5 3 7 4 OZO 1024,7 0,3 0 0,0
20.02.2019 02:00:00 2,5 1,5 -0,8 6,1 6,7 0 0 4 2 N 1024,5 0,2 0 0,0
20.02.2019 01:00:00 3,7 2,1 1,9 6,3 6,7 3 1 6 3 ZW 1024,2 0,7 0 0,0
20.02.2019 00:00:00 3,3 2,1 2,3 6,3 6,7 4 2 11 6 N 1024,2 4,2 0 0,0
19.02.2019 23:00:00 2,3 1,7 -0,2 6,4 6,7 11 6 14 8 OZO 1024,3 3,1 0 0,0
19.02.2019 22:00:00 2,3 1,1 0,1 6,3 6,7 4 2 11 6 W 1024,2 1,9 0 0,0
19.02.2019 21:00:00 4,5 3,3 1,3 6,3 6,7 3 2 9 5 ONO 1023,7 6 0 0,0
19.02.2019 20:00:00 5,8 4,1 2,8 6,2 6,7 0 0 5 3 N 1023,3 7 0 0,0
19.02.2019 19:00:00 8,7 4,7 7,1 6,0 6,6 3 2 14 7 N 1022,9 16 0 0,0
19.02.2019 18:00:00 9,8 5,0 9,4 5,9 6,6 8 4 17 9 N 1022,3 20 14 0,0
19.02.2019 17:00:00 10,8 5,3 11,4 5,7 6,6 11 6 17 9 WNW 1022,1 27 43 0,0
19.02.2019 16:00:00 11,2 5,1 12,6 5,4 6,7 10 6 21 12 NNW 1022,0 20 31 0,0
19.02.2019 15:00:00 11,6 4,8 13,5 5,2 6,6 9 5 15 8 NW 1022,0 23 24 0,0
19.02.2019 14:00:00 11,5 4,9 13,5 5,0 6,7 7 4 16 9 WNW 1022,3 29 44 0,0
19.02.2019 13:00:00 11,6 4,6 13,8 5,0 6,6 6 3 14 8 Z 1022,9 19 60 0,0
19.02.2019 12:00:00 10,3 3,8 11,2 4,9 6,6 3 2 10 5 W 1023,6 19 57 0,0
19.02.2019 11:00:00 8,8 3,2 6,7 5,0 6,6 5 3 11 6 O 1023,8 20 57 0,0
19.02.2019 10:00:00 4,3 1,8 2,6 5,1 6,6 5 3 9 5 ZO 1024,2 16 48 0,0
19.02.2019 09:00:00 1,5 0,2 -0,3 5,3 6,7 2 1 9 5 WZW 1024,1 17 21 0,0
19.02.2019 08:00:00 -0,4 -1,1 -2,7 5,4 6,6 6 4 14 7 O 1023,6 20 2 0,0
19.02.2019 07:00:00 -1,5 -2,6 -3,2 5,6 6,6 5 3 10 5 OZO 1023,4 19 0 0,0
19.02.2019 06:00:00 -2,1 -3,4 -3,5 5,7 6,6 8 4 13 7 ZO 1023,2 20 0 0,0
19.02.2019 05:00:00 -1,5 -2,6 -2,9 5,9 6,6 5 3 10 5 OZO 1023,1 19 0 0,0
19.02.2019 04:00:00 -0,6 -2,3 -2,7 6,0 6,6 4 2 9 5 O 1022,7 20 0 0,0
19.02.2019 03:00:00 -0,1 -1,4 -1,9 6,1 6,6 6 3 11 6 OZO 1022,7 20 0 0,0
19.02.2019 02:00:00 0,1 -2,3 -1,4 6,2 6,6 5 3 9 5 ZO 1022,7 19 0 0,0
19.02.2019 01:00:00 1,1 -1,8 -0,9 6,4 6,6 6 4 11 6 OZO 1022,5 17 0 0,0
19.02.2019 00:00:00 2,7 -1,3 -0,2 6,5 6,6 8 5 11 6 O 1022,0 13 0 0,0
18.02.2019 23:00:00 3,1 -1,3 1,2 6,5 6,6 5 3 11 6 ZO 1021,8 12 0 0,0
18.02.2019 22:00:00 4,3 -1,1 1,5 6,5 6,6 4 2 17 9 Z 1021,5 37 0 0,0
18.02.2019 21:00:00 7,5 -0,7 3,9 6,5 6,6 6 4 13 7 OZO 1021,0 35 0 0,0
18.02.2019 20:00:00 9,7 -1,4 4,5 6,4 6,6 5 3 16 9 ZO 1020,6 60 0 0,0
18.02.2019 19:00:00 8,5 -2,2 3,4 6,3 6,6 12 6 18 10 ZZW 1020,4 60 0 0,0
18.02.2019 18:00:00 10,9 -2,2 8,0 6,1 6,6 9 5 35 19 ZW 1019,8 60 37 0,0
18.02.2019 17:00:00 14,5 -0,8 15,6 5,8 6,6 21 11 37 20 ZW 1019,1 41 60 0,0
18.02.2019 16:00:00 15,2 -2,3 17,0 5,5 6,6 18 10 33 18 WZW 1019,5 59 60 0,0
18.02.2019 15:00:00 15,6 -3,4 18,3 5,2 6,6 18 10 34 18 ZW 1019,2 52 60 0,0
18.02.2019 14:00:00 15,2 -2,3 18,7 5,0 6,5 19 11 36 19 ZW 1020,0 49 60 0,0
18.02.2019 13:00:00 13,8 1,1 17,0 4,9 6,5 11 6 29 16 WZW 1021,1 60 60 0,0
18.02.2019 12:00:00 11,8 3,0 14,1 4,9 6,6 7 4 23 12 ZZW 1022,0 20 60 0,0
18.02.2019 11:00:00 9,8 3,3 8,8 5,1 6,5 5 3 10 5 W 1022,6 18 60 0,0
18.02.2019 10:00:00 6,1 1,8 3,9 5,2 6,5 3 2 6 4 Z 1023,3 13 60 0,0
18.02.2019 09:00:00 1,8 -0,5 -3,6 5,4 6,5 2 1 6 3 ZW 1024,0 17 60 0,0
18.02.2019 08:00:00 -1,9 -2,7 -4,5 5,5 6,5 0 0 10 6 N 1024,4 17 0 0,0
18.02.2019 07:00:00 -2,5 -3,3 -4,5 5,6 6,6 5 3 8 4 OZO 1024,4 30 0 0,0
18.02.2019 06:00:00 -1,9 -3,3 -2,8 5,8 6,6 4 2 8 4 ZZO 1024,6 35 0 0,0
18.02.2019 05:00:00 -1,5 -3,1 -3,1 6,0 6,6 9 5 14 7 O 1024,7 33 0 0,0
18.02.2019 04:00:00 0,4 -2,7 -0,7 6,1 6,5 5 3 10 5 ONO 1024,4 36 0 0,0
18.02.2019 03:00:00 3,0 -1,9 0,7 6,2 6,5 3 2 10 5 NO 1024,4 30 0 0,0
18.02.2019 02:00:00 1,2 -2,2 -2,0 6,4 6,5 6 3 11 6 O 1024,8 20 0 0,0
18.02.2019 01:00:00 -0,7 -2,6 -2,2 6,5 6,5 12 7 16 8 OZO 1025,1 20 0 0,0
18.02.2019 00:00:00 4,1 -1,5 1,1 6,6 6,5 0 0 12 6 N 1024,3 23 0 0,0
17.02.2019 23:00:00 3,6 -1,4 -0,1 6,7 6,5 4 2 10 5 O 1024,3 31 0 0,0
17.02.2019 22:00:00 3,2 -1,0 0,7 6,7 6,5 5 3 11 6 ONO 1024,5 20 0 0,0
17.02.2019 21:00:00 4,5 -1,3 2,8 6,7 6,5 8 4 9 5 O 1024,1 35 0 0,0
17.02.2019 20:00:00 6,1 -0,9 2,7 6,6 6,5 6 3 15 8 O 1023,8 53 0 0,0
17.02.2019 19:00:00 9,6 -0,9 6,9 6,4 6,5 4 2 8 4 OZO 1023,2 20 0 0,0
17.02.2019 18:00:00 13,4 -1,0 8,6 6,0 6,5 3 1 6 3 Z 1022,3 60 35 0,0
17.02.2019 17:00:00 18,3 -1,6 19,7 5,7 6,5 3 2 13 7 ZW 1021,8 60 60 0,0
17.02.2019 16:00:00 18,2 -1,6 21,2 5,4 6,5 7 4 25 14 ZZW 1022,3 59 60 0,0
17.02.2019 15:00:00 17,9 -2,4 22,4 5,1 6,5 15 8 29 15 ZZW 1022,8 52 60 0,0
17.02.2019 14:00:00 17,6 -2,2 21,9 4,9 6,5 14 7 24 13 ZW 1023,4 57 60 0,0
17.02.2019 13:00:00 17,3 -2,4 20,5 4,7 6,5 12 7 22 12 ZW 1024,1 48 60 0,0
17.02.2019 12:00:00 16,1 -2,0 16,0 4,7 6,5 6 4 14 8 ZZW 1024,8 20 60 0,0
17.02.2019 11:00:00 11,5 -1,3 10,1 4,8 6,5 8 4 12 6 ONO 1025,6 39 60 0,0
17.02.2019 10:00:00 7,0 -0,2 5,2 5,0 6,5 4 2 10 6 O 1026,4 34 60 0,0
17.02.2019 09:00:00 0,8 -1,4 -3,0 5,1 6,5 5 3 11 6 ZO 1027,3 23 58 0,0
17.02.2019 08:00:00 -2,5 -4,1 -4,8 5,3 6,5 8 4 10 6 ZO 1027,7 31 0 0,0
17.02.2019 07:00:00 -2,7 -4,0 -4,0 5,5 6,5 5 3 11 6 ZO 1027,5 22 0 0,0
17.02.2019 06:00:00 -2,5 -4,1 -3,6 5,6 6,5 7 4 10 6 ZO 1027,7 32 0 0,0
17.02.2019 05:00:00 1,4 -2,7 0,2 5,7 6,5 3 2 9 5 ZZO 1027,1 35 0 0,0
17.02.2019 04:00:00 1,7 -2,8 0,4 5,8 6,5 6 3 9 5 ZO 1027,2 31 0 0,0
17.02.2019 03:00:00 2,5 -2,6 0,8 6,0 6,5 7 4 18 10 ONO 1027,3 36 0 0,0
17.02.2019 02:00:00 1,8 -2,3 -0,9 6,1 6,5 13 7 16 9 O 1027,7 20 0 0,0
17.02.2019 01:00:00 2,5 -2,0 -0,6 6,2 6,5 11 6 16 9 ONO 1028,0 19 0 0,0
17.02.2019 00:00:00 0,3 -1,5 -1,9 6,4 6,5 9 5 11 6 OZO 1028,3 16 0 0,0
16.02.2019 23:00:00 3,7 -1,5 -0,9 6,4 6,5 3 2 8 4 Z 1027,9 19 0 0,0
16.02.2019 22:00:00 4,5 -0,7 2,3 6,5 6,5 5 3 10 6 O 1027,7 20 0 0,0
16.02.2019 21:00:00 3,5 -0,3 0,7 6,4 6,5 9 5 11 6 OZO 1027,9 22 0 0,0
16.02.2019 20:00:00 7,8 0,0 3,3 6,3 6,5 2 1 8 5 N 1027,5 19 0 0,0
16.02.2019 19:00:00 8,9 0,6 3,9 6,0 6,4 3 2 9 5 OZO 1027,5 20 0 0,0
16.02.2019 18:00:00 14,3 0,2 7,4 5,7 6,5 4 2 6 4 NNW 1026,5 34 34 0,0
16.02.2019 17:00:00 17,4 0,5 20,5 5,4 6,5 4 2 8 5 ZO 1026,1 53 60 0,0
16.02.2019 16:00:00 18,8 -0,1 22,2 5,0 6,4 3 2 9 5 N 1026,4 52 60 0,0
16.02.2019 15:00:00 18,1 0,7 23,0 4,7 6,5 6 3 12 6 NO 1026,8 43 60 0,0
16.02.2019 14:00:00 16,3 0,4 21,2 4,4 6,5 5 3 12 7 W 1027,9 18 60 0,0
16.02.2019 13:00:00 15,7 1,0 18,7 4,4 6,5 3 2 9 5 Z 1028,7 20 60 0,0
16.02.2019 12:00:00 13,4 1,1 14,6 4,3 6,4 5 3 10 5 WNW 1029,6 20 60 0,0
16.02.2019 11:00:00 10,2 -0,1 9,5 4,4 6,4 6 3 10 5 O 1029,8 54 60 0,0
16.02.2019 10:00:00 6,8 -1,1 3,4 4,5 6,5 3 2 8 4 Z 1030,1 37 60 0,0
16.02.2019 09:00:00 1,3 -2,8 -2,6 4,6 6,5 4 2 10 6 ZO 1031,1 19 57 0,0
16.02.2019 08:00:00 0,6 -4,4 -1,0 4,8 6,5 3 2 9 5 ZZO 1030,8 56 0 0,0
16.02.2019 07:00:00 1,0 -4,6 -2,3 4,9 6,5 9 5 13 7 O 1030,5 60 0 0,0
16.02.2019 06:00:00 -1,0 -4,4 -2,5 5,0 6,4 6 4 8 5 O 1030,7 55 0 0,0
16.02.2019 05:00:00 -1,2 -4,0 -1,9 5,2 6,5 6 3 10 5 OZO 1030,9 42 0 0,0
16.02.2019 04:00:00 0,9 -3,6 -0,8 5,3 6,4 6 3 10 6 ONO 1030,4 46 0 0,0
16.02.2019 03:00:00 0,7 -3,4 -1,8 5,5 6,5 3 2 10 6 O 1030,7 28 0 0,0
16.02.2019 02:00:00 -0,8 -3,0 -1,8 5,6 6,5 6 4 10 5 O 1030,8 18 0 0,0
16.02.2019 01:00:00 1,9 -2,4 -0,4 5,7 6,4 0 0 11 6 N 1030,6 31 0 0,0
16.02.2019 00:00:00 2,3 -1,7 1,3 5,9 6,5 2 1 9 5 NO 1030,2 26 0 0,0
15.02.2019 23:00:00 2,4 -0,9 0,5 5,9 6,4 3 2 8 4 NO 1030,3 20 0 0,0
15.02.2019 22:00:00 3,8 -0,4 0,8 5,9 6,5 3 1 14 7 NW 1030,0 16 0 0,0
15.02.2019 21:00:00 3,7 -0,3 2,0 5,9 6,4 10 5 13 7 ONO 1030,1 17 0 0,0
15.02.2019 20:00:00 6,5 0,0 4,8 5,8 6,4 7 4 9 5 ONO 1030,0 16 0 0,0
15.02.2019 19:00:00 8,9 0,6 3,0 5,6 6,5 5 3 9 5 ONO 1029,7 25 0 0,0
15.02.2019 18:00:00 11,7 1,3 7,9 5,3 6,4 8 4 16 8 ZO 1029,4 38 32 0,0
15.02.2019 17:00:00 14,7 0,9 17,3 4,9 6,4 11 6 20 11 ZZO 1029,1 50 60 0,0
15.02.2019 16:00:00 16,5 0,2 19,4 4,6 6,4 15 8 18 10 Z 1029,0 50 60 0,0
15.02.2019 15:00:00 16,9 -1,3 21,2 4,3 6,4 9 5 16 9 Z 1029,4 57 60 0,0
15.02.2019 14:00:00 16,0 0,5 20,5 4,1 6,4 5 3 16 9 Z 1030,0 51 60 0,0
15.02.2019 13:00:00 15,1 0,1 17,2 4,0 6,4 9 5 20 11 Z 1030,9 20 60 0,0
15.02.2019 12:00:00 13,2 0,6 13,1 4,0 6,4 6 4 12 7 Z 1031,8 16 60 0,0
15.02.2019 11:00:00 9,5 2,1 5,6 4,1 6,4 2 1 7 4 O 1032,6 19 60 0,0
15.02.2019 10:00:00 3,5 0,4 1,5 4,2 6,4 5 3 9 5 W 1033,4 13 60 0,0
15.02.2019 09:00:00 -0,5 -2,1 -5,1 4,3 6,4 3 1 10 5 NO 1034,1 36 55 0,0
15.02.2019 08:00:00 -3,6 -4,3 -7,0 4,5 6,4 3 1 4 2 OZO 1034,4 2,6 0 0,0
15.02.2019 07:00:00 -3,8 -5,2 -5,5 4,6 6,5 0 0 7 4 N 1034,2 4,9 0 0,0
15.02.2019 06:00:00 -2,4 -4,3 -4,3 4,7 6,4 2 1 8 4 NO 1033,9 17 0 0,0
15.02.2019 05:00:00 -0,7 -3,1 -3,7 4,9 6,4 6 3 9 5 NO 1033,5 14 0 0,0
15.02.2019 04:00:00 0,1 -2,6 -2,8 5,0 6,5 2 1 9 5 ZW 1033,7 24 0 0,0
15.02.2019 03:00:00 0,9 -2,5 -2,2 5,1 6,4 7 4 12 6 NO 1033,8 30 0 0,0
15.02.2019 02:00:00 1,7 -1,9 0,6 5,2 6,4 6 3 9 5 NO 1033,7 14 0 0,0
15.02.2019 01:00:00 1,9 -1,7 -0,4 5,3 6,4 3 1 11 6 W 1033,8 19 0 0,0
15.02.2019 00:00:00 1,4 -1,3 -0,9 5,4 6,4 6 4 10 5 ONO 1034,1 17 0 0,0
14.02.2019 23:00:00 1,7 -0,9 -0,5 5,4 6,4 4 2 8 5 O 1034,4 18 0 0,0
14.02.2019 22:00:00 2,6 -0,7 1,0 5,5 6,4 0 0 6 3 N 1034,3 16 0 0,0
14.02.2019 21:00:00 4,6 0,0 1,6 5,4 6,4 4 2 9 5 NO 1033,9 17 0 0,0
14.02.2019 20:00:00 4,3 -0,3 1,4 5,4 6,4 6 4 9 5 OZO 1034,3 24 0 0,0
14.02.2019 19:00:00 6,2 -0,5 1,5 5,1 6,5 0 0 10 5 N 1033,8 42 0 0,0
14.02.2019 18:00:00 10,8 -0,4 6,0 4,8 6,4 3 1 5 3 WZW 1033,1 47 23 0,0
14.02.2019 17:00:00 15,1 -1,5 16,5 4,5 6,4 3 2 8 4 WZW 1033,0 52 60 0,0
14.02.2019 16:00:00 15,6 -1,5 20,1 4,1 6,4 2 1 8 5 NNO 1033,5 49 60 0,0
14.02.2019 15:00:00 15,0 -1,2 20,0 3,9 6,4 4 2 10 6 W 1034,1 20 60 0,0
14.02.2019 14:00:00 14,9 -1,3 19,1 3,6 6,4 4 2 10 5 ZW 1034,8 47 60 0,0

tt = temperatuur
td = dauwpunt
tt 5cm = temperatuur 5cm
tt -20cm = temperatuur -20cm
tt -100cm = temperatuur -100cm
ff = windsnelheid
fx = windstoten
dd = windrichting
ppp = luchtdruk
vv = zicht
sd = Zonneschijnduur
rr = neerslag

Weerstations in de omgeving